[[{"header":{"parameterUnit":"m.s-1","parameterCategory":1,"la1":30.2991,"la2":30.254,"lo1":-89.0895,"lo2":-89.0444,"dy":0.0017,"dx":0.0017,"nx":28,"ny":28,"refTime":"2023-09-19T09:00:00:Z","depth":0,"parameterNumber":2,"parameterNumberName":"U-component_of_WINDS"},"data":[0,0,0,0,0,0,0,0,0,0,0,0,0,0,0,0,0,0,0,0,0,0,0,0,0,0,0,0,0,0,0,0,0,0,0,0,0,0,0,0,0,0,0,0,0,0,0,0,0,0,0,0,0,0,0,0,0,0,1.1474,1.1473,0,1.1464,1.1464,1.1464,1.143,1.1429,1.1428,1.1428,1.1416,1.1416,1.1417,0,0,0,0,0,0,0,0,0,0,0,0,0,1.1459,1.1459,1.1474,1.1473,1.1473,1.1464,1.1464,1.1464,1.143,1.1429,1.1428,1.1427,1.1416,1.1416,1.1417,0,0,0,0,0,0,0,0,0,0,0,0,0,1.1459,1.1459,1.1474,1.1455,1.1454,1.1464,1.1464,1.1464,1.143,1.1429,1.1428,1.1427,1.1416,1.1416,1.1417,1.1443,0,0,1.1419,1.1419,0,0,0,0,0,0,0,0,1.1459,1.1459,1.1458,1.1457,1.1455,1.1447,1.1454,1.1457,1.1431,1.1439,1.1428,1.1426,1.1427,1.1427,1.1427,1.1443,1.1442,1.1419,1.1419,1.1419,1.142,0,0,0,0,0,0,0,1.1459,1.1459,1.147,1.1458,1.1456,1.1446,1.1445,1.1455,1.144,1.1438,1.1436,1.1435,1.1426,1.1427,1.1427,1.1442,1.1419,1.1419,1.142,1.142,1.1475,1.1476,0,0,0,0,0,0,1.1462,1.146,1.147,1.1469,1.1454,1.1448,1.1446,1.1451,1.1439,1.1437,1.1436,1.1434,1.1426,1.1426,1.1426,1.1454,1.1419,1.142,1.142,1.1474,1.1475,1.1477,0,0,0,0,0,0,1.1462,1.1463,1.147,1.1464,1.1464,1.1449,1.1454,1.1451,1.1452,1.1438,1.1435,1.144,1.1426,1.1425,1.1439,1.1453,1.142,1.1421,1.1473,1.1474,1.1476,1.1511,0,0,0,0,0,0,1.1461,1.1463,1.1474,1.1464,1.1465,1.1484,1.1455,1.1452,1.1453,1.145,1.1441,1.1438,1.1425,1.1438,1.1439,1.1453,1.1421,1.1471,1.1474,1.1475,1.1509,1.1514,1.1518,0,0,0,0,0,1.1461,1.1485,1.1475,1.1476,1.1478,1.1485,1.1485,1.147,1.1455,1.1465,1.1455,1.1438,1.1452,1.144,1.1441,1.1455,1.147,1.1473,1.1475,1.1506,1.1513,1.1518,0,0,0,0,0,0,1.1496,1.1483,1.1472,1.1494,1.1491,1.148,1.1492,1.1478,1.1478,1.1475,1.1455,1.1453,1.1469,1.1464,1.145,1.1479,1.1458,1.1461,1.1481,1.1487,1.1492,1.1492,1.1422,0,0,0,0,0,1.1507,1.1515,1.1502,1.1523,1.1522,1.1507,1.151,1.1498,1.1494,1.1492,1.1484,1.148,1.1482,1.1485,1.1487,1.1508,1.1504,1.1518,1.1523,1.1527,1.1529,1.1537,1.1542,1.1485,1.1485,1.1485,0,0,1.1528,1.1522,1.1528,1.1529,1.1526,1.1533,1.1506,1.1515,1.152,1.1493,1.1505,1.1498,1.1492,1.1509,1.1516,1.1505,1.1544,1.1531,1.1534,1.1534,1.154,1.1545,1.155,1.1487,1.1486,1.1486,0,0,1.157,1.1568,1.1582,1.1579,1.1574,1.1564,1.1567,1.1558,1.1552,1.1564,1.1543,1.1548,1.1554,1.1549,1.1548,1.1586,1.1569,1.1587,1.1612,1.162,1.1624,1.1628,1.1639,1.1643,1.159,1.159,1.159,0,1.1597,1.1608,1.1592,1.1601,1.1601,1.1578,1.1592,1.1589,1.1585,1.1585,1.1573,1.1578,1.1573,1.1586,1.1595,1.1596,1.1598,1.1588,1.1625,1.1629,1.1632,1.1642,1.1646,1.1592,1.1592,1.1592,1.1591,0,1.1639,1.1647,1.166,1.1655,1.1657,1.1669,1.1653,1.1656,1.1644,1.1635,1.1645,1.1637,1.1636,1.1639,1.1628,1.165,1.1643,1.1629,1.1607,1.164,1.1649,1.1653,1.1595,1.1594,1.1594,1.1593,0,0,1.1703,1.1689,1.1694,1.169,1.1682,1.1687,1.1697,1.1696,1.1697,1.1695,1.1701,1.1706,1.1692,1.169,1.1678,1.1685,1.1712,1.1669,1.1668,1.1675,1.1733,1.1742,1.1747,1.1701,1.1702,1.1703,1.1732,0,1.1741,1.1757,1.1742,1.1761,1.1766,1.1743,1.1751,1.1746,1.1737,1.1739,1.1729,1.1731,1.1714,1.1712,1.1718,1.1707,1.1723,1.1705,1.1704,1.1704,1.1704,1.1752,1.1762,1.1791,1.1736,1.1737,1.1737,0,1.1787,1.1786,1.1805,1.1793,1.1794,1.1802,1.1798,1.1801,1.1794,1.1787,1.1784,1.1769,1.1776,1.1756,1.1763,1.1752,1.175,1.1745,1.1745,1.1743,1.1721,1.1749,1.18,1.1803,1.1743,1.1742,1.1742,0,1.1828,1.1831,1.1842,1.1841,1.1828,1.1833,1.1828,1.182,1.1819,1.1816,1.1815,1.1813,1.1811,1.1809,1.1792,1.178,1.18,1.178,1.1793,1.1793,1.1797,1.1796,1.1846,1.18,1.18,1.18,1.18,0,1.187,1.1882,1.186,1.1867,1.1878,1.1861,1.1872,1.1865,1.1857,1.186,1.1841,1.1844,1.1824,1.1824,1.1811,1.1818,1.1818,1.181,1.1806,1.1811,1.1811,1.1808,1.1805,1.1801,1.1801,1.18,1.18,0,1.1917,1.1904,1.1914,1.19,1.1897,1.1906,1.1894,1.1898,1.1888,1.1892,1.1892,1.1875,1.1875,1.1858,1.1855,1.1846,1.1856,1.185,1.1859,1.1856,1.1868,1.1866,1.1916,1.192,1.1874,1.1874,1.1875,0,1.1944,1.1952,1.194,1.194,1.1936,1.1938,1.1937,1.192,1.1919,1.1911,1.1915,1.1913,1.191,1.191,1.1897,1.1893,1.1885,1.1902,1.1884,1.1887,1.1882,1.188,1.188,1.1905,1.1906,1.1907,1.1907,0,1.1992,1.1984,1.1984,1.1981,1.198,1.1977,1.1973,1.1974,1.1955,1.1955,1.1954,1.1952,1.1947,1.1944,1.1938,1.1931,1.1915,1.1913,1.1915,1.1919,1.1923,1.1918,1.1867,1.1912,1.1911,1.1911,1.1911,1.191,1.2027,1.2033,1.2024,1.2024,1.2018,1.2014,1.2017,1.2007,1.2006,1.2001,1.199,1.199,1.1981,1.197,1.1964,1.1963,1.1954,1.1958,1.1958,1.1959,1.196,1.1925,1.1962,1.1962,1.1962,1.1962,1.1961,0,1.2072,1.2065,1.2065,1.2059,1.2058,1.2044,1.2038,1.2038,1.2038,1.2031,1.2028,1.2026,1.2023,1.2009,1.2003,1.2005,1.1997,1.2004,1.2002,1.2,1.197,1.1968,1.201,1.201,1.201,1.201,1.201,1.201,1.2095,1.2102,1.2093,1.2097,1.2089,1.209,1.2087,1.2082,1.2076,1.2074,1.2071,1.2062,1.2052,1.2045,1.2041,1.2036,1.2034,1.2043,1.2036,1.2008,1.2003,1.1998,1.1996,1.2043,1.2043,1.2066,1.2066,1.2066]},{"header":{"parameterUnit":"m.s-1","parameterCategory":1,"la1":30.2991,"la2":30.254,"lo1":-89.0895,"lo2":-89.0444,"dy":0.0017,"dx":0.0017,"nx":28,"ny":28,"refTime":"2023-09-19T09:00:00:Z","depth":0,"parameterNumber":3,"parameterNumberName":"V-component_of_WINDS"},"data":[0,0,0,0,0,0,0,0,0,0,0,0,0,0,0,0,0,0,0,0,0,0,0,0,0,0,0,0,0,0,0,0,0,0,0,0,0,0,0,0,0,0,0,0,0,0,0,0,0,0,0,0,0,0,0,0,0,0,1.9389,1.9388,0,1.9268,1.9267,1.9265,1.918,1.9179,1.9179,1.9178,1.9047,1.9044,1.9041,0,0,0,0,0,0,0,0,0,0,0,0,0,1.9538,1.9536,1.9389,1.9388,1.9386,1.9268,1.9267,1.9265,1.918,1.9179,1.9179,1.9178,1.9048,1.9044,1.9041,0,0,0,0,0,0,0,0,0,0,0,0,0,1.9451,1.9535,1.9389,1.933,1.9323,1.9269,1.9267,1.9264,1.918,1.9179,1.9178,1.9177,1.9049,1.9045,1.904,1.9033,0,0,1.9027,1.9025,0,0,0,0,0,0,0,0,1.9456,1.9446,1.934,1.9334,1.9326,1.9238,1.9271,1.9187,1.9181,1.9234,1.9178,1.9177,1.9111,1.9101,1.9081,1.9027,1.9022,1.9027,1.9024,1.9022,1.9021,0,0,0,0,0,0,0,1.9462,1.945,1.9341,1.9339,1.933,1.9306,1.9293,1.9255,1.9179,1.923,1.9223,1.921,1.9107,1.9085,1.9077,1.902,1.9027,1.9023,1.902,1.9019,1.895,1.8951,0,0,0,0,0,0,1.9479,1.9456,1.9345,1.9337,1.939,1.9304,1.9289,1.9267,1.918,1.9165,1.9211,1.9207,1.9093,1.9082,1.9072,1.9055,1.9022,1.9018,1.9016,1.895,1.895,1.8951,0,0,0,0,0,0,1.9482,1.947,1.935,1.9395,1.9378,1.9303,1.9279,1.9266,1.9244,1.9166,1.9151,1.9203,1.9092,1.9078,1.9043,1.905,1.9016,1.9012,1.8949,1.895,1.8951,1.9024,0,0,0,0,0,0,1.9487,1.9472,1.947,1.9396,1.9376,1.9326,1.9279,1.9264,1.9237,1.923,1.9154,1.9141,1.909,1.905,1.9039,1.9043,1.9009,1.8948,1.8949,1.8951,1.9021,1.9028,1.9034,0,0,0,0,0,1.9493,1.9495,1.9471,1.9458,1.9373,1.9327,1.9315,1.9258,1.9238,1.9234,1.9184,1.9143,1.9051,1.9047,1.9034,1.9037,1.8947,1.8949,1.895,1.9018,1.9026,1.9033,0,0,0,0,0,0,1.957,1.9484,1.9456,1.9435,1.9389,1.9312,1.9306,1.9269,1.9226,1.9221,1.9151,1.9134,1.9106,1.9068,1.9065,1.9024,1.8994,1.8993,1.905,1.9057,1.9063,1.9072,1.9006,0,0,0,0,0,1.9585,1.9557,1.9482,1.947,1.9449,1.9382,1.936,1.932,1.9268,1.9248,1.9195,1.9145,1.9104,1.9078,1.9037,1.9015,1.8995,1.901,1.9017,1.9022,1.9022,1.9004,1.9009,1.8957,1.8957,1.8957,0,0,1.9614,1.9564,1.955,1.9484,1.9444,1.9414,1.9366,1.9337,1.9312,1.9242,1.9207,1.9166,1.9105,1.9076,1.906,1.9043,1.9032,1.9025,1.903,1.9026,1.9007,1.9012,1.9016,1.8958,1.8958,1.8958,0,0,1.9653,1.9614,1.9598,1.9559,1.9499,1.9454,1.9451,1.938,1.935,1.9314,1.926,1.9229,1.9161,1.9119,1.9089,1.911,1.9069,1.9098,1.9131,1.9114,1.9118,1.9122,1.9127,1.9129,1.9098,1.9098,1.9098,0,1.9697,1.9652,1.9594,1.9568,1.9539,1.9476,1.9458,1.9422,1.9351,1.9331,1.9314,1.9226,1.9181,1.914,1.9145,1.9123,1.9114,1.9106,1.9123,1.9126,1.9128,1.9131,1.9134,1.9102,1.9101,1.9101,1.9101,0,1.9707,1.9677,1.9671,1.9606,1.9576,1.9554,1.949,1.9467,1.943,1.9386,1.9347,1.929,1.9235,1.9222,1.9185,1.9175,1.9166,1.9137,1.9105,1.9137,1.914,1.9141,1.9107,1.9106,1.9105,1.9104,0,0,1.9791,1.9694,1.9693,1.9661,1.959,1.9564,1.9538,1.9486,1.9466,1.9418,1.9392,1.9336,1.9308,1.9273,1.923,1.9217,1.9233,1.9188,1.9185,1.9197,1.9215,1.9237,1.924,1.9207,1.9207,1.9207,1.922,0,1.9817,1.9769,1.9716,1.9685,1.9654,1.9593,1.957,1.9522,1.948,1.9445,1.9397,1.9358,1.9325,1.9304,1.9287,1.9235,1.9236,1.9233,1.9178,1.9177,1.9194,1.9241,1.9264,1.9279,1.922,1.9221,1.9221,0,1.9841,1.9798,1.9765,1.9695,1.968,1.9661,1.9607,1.9576,1.9519,1.9489,1.9451,1.9405,1.937,1.9344,1.9294,1.9293,1.9267,1.9238,1.9237,1.9228,1.92,1.9232,1.9283,1.9285,1.9222,1.9222,1.9222,0,1.9902,1.9836,1.9808,1.9783,1.9701,1.9688,1.9653,1.9596,1.9567,1.952,1.95,1.9448,1.942,1.9379,1.9319,1.9306,1.9274,1.9243,1.9245,1.9247,1.924,1.9241,1.9286,1.9227,1.9227,1.9227,1.9227,0,1.9936,1.9917,1.9834,1.9816,1.9793,1.973,1.9707,1.9666,1.9615,1.9586,1.953,1.9503,1.9427,1.9389,1.9342,1.9306,1.9294,1.9266,1.9253,1.927,1.9273,1.9251,1.9247,1.9228,1.9228,1.9227,1.9227,0,2.0,1.9944,1.9908,1.9834,1.9815,1.9801,1.9735,1.9714,1.9669,1.9632,1.9619,1.9547,1.95,1.9437,1.937,1.9338,1.9307,1.9288,1.9327,1.9319,1.9324,1.9324,1.9355,1.9354,1.9298,1.9299,1.9299,0,2.0025,2.0009,1.9934,1.9911,1.9878,1.9843,1.9814,1.975,1.9722,1.9655,1.9641,1.959,1.9546,1.9474,1.9413,1.9361,1.9339,1.9353,1.933,1.9347,1.9336,1.9337,1.9334,1.9358,1.9359,1.936,1.9361,0,2.0073,2.0046,2.0007,1.9959,1.9926,1.9884,1.9839,1.9823,1.975,1.972,1.9673,1.9639,1.9571,1.952,1.946,1.9419,1.9376,1.9369,1.9366,1.9382,1.9404,1.939,1.934,1.9368,1.9367,1.9367,1.9366,1.9366,2.0116,2.0099,2.0043,2.0001,1.9961,1.992,1.9896,1.9848,1.9809,1.975,1.9714,1.9668,1.9608,1.9523,1.9485,1.9445,1.9428,1.9425,1.9423,1.9423,1.9428,1.9413,1.9434,1.9433,1.9433,1.9433,1.9433,0,2.016,2.0121,2.0083,2.0023,1.999,1.9956,1.9903,1.9877,1.9838,1.9787,1.9745,1.9689,1.9639,1.9575,1.9519,1.95,1.9478,1.9487,1.9487,1.9478,1.9447,1.9454,1.9505,1.9505,1.9505,1.9505,1.9505,1.9505,2.0179,2.0147,2.0113,2.0059,2.0019,1.9976,1.9948,1.9909,1.9868,1.9809,1.9768,1.9728,1.967,1.961,1.9561,1.9543,1.9524,1.9539,1.9514,1.9487,1.948,1.9474,1.948,1.9536,1.9536,1.9548,1.9548,1.9548]}]]